WP4MXZ San Sebastian PR US current weather conditions

sailwx.info

Wind from 165

Air temperature 23.9° C
Dewpoint 23.9° C

Last reported at 2015-Jul-07 05:33 UTC.
Time now 2015-Jul-07 06:44 UTC

Location: N 18°20' W 067°00'.
View on Google Maps.

See reports from other nearby stations

  
Tides and Currents Weather Stations Pressure Air Temp Water Temp Dewpoint Dewpoint Depression Visibility Wind Speed Wind Dir Waves Ship Positions
date/time (UTC)wind fromknots sea level pressurealtimeterstation pressurevisibilityair tempwater tempwave heightnotes
2015-Jul-07 05:33 165 23.9
2015-Jul-07 05:03 165 24.4
2015-Jul-07 04:33 161 25.0
2015-Jul-07 04:03 161 25.0
2015-Jul-07 03:33 161 25.6
2015-Jul-07 03:03 161 26.1
2015-Jul-07 02:33 167 26.1
2015-Jul-07 02:03 136 1 gusting 6 26.1
2015-Jul-07 01:33 128 26.7
2015-Jul-07 01:03 173 0 gusting 5 26.7
2015-Jul-07 00:33 163 0 gusting 6 27.2
2015-Jul-07 00:03 169 1 gusting 7 27.2
2015-Jul-06 23:33 136 4 gusting 10 27.8
2015-Jul-06 23:03 125 3 gusting 9 28.3
2015-Jul-06 22:33 139 1 gusting 10 28.9
2015-Jul-06 22:03 157 2 gusting 9 29.4
2015-Jul-06 21:33 162 5 gusting 13 30.0
2015-Jul-06 21:03 125 6 gusting 13 30.6
2015-Jul-06 20:33 083 6 gusting 11 30.6
2015-Jul-06 20:03 143 3 gusting 11 30.6
2015-Jul-06 19:33 173 4 gusting 8 30.6
2015-Jul-06 19:03 147 7 gusting 13 31.1
2015-Jul-06 18:33 138 3 gusting 12 31.7
2015-Jul-06 18:03 117 6 gusting 17 31.7
2015-Jul-06 17:33 145 6 gusting 13 31.7
2015-Jul-06 17:03 084 5 gusting 12 31.7
2015-Jul-06 16:34 070 6 gusting 10 31.7
2015-Jul-06 16:03 123 2 gusting 10 31.7
2015-Jul-06 15:33 122 5 gusting 9 31.7
2015-Jul-06 15:03 160 3 gusting 10 31.1
2015-Jul-06 14:33 164 5 gusting 11 31.1
2015-Jul-06 14:03 151 5 gusting 9 30.6
2015-Jul-06 13:33 144 3 gusting 7 29.4
2015-Jul-06 13:03 128 2 gusting 9 28.9
2015-Jul-06 12:33 197 2 gusting 8 28.3
2015-Jul-06 12:03 093 27.2
2015-Jul-06 11:33 241 26.1
2015-Jul-06 11:03 247 25.0
2015-Jul-06 10:33 247 23.3
2015-Jul-06 10:03 247 23.3
2015-Jul-06 09:33 247 23.3
2015-Jul-06 09:03 247 23.9
2015-Jul-06 08:33 247 24.4
2015-Jul-06 08:03 213 23.9
2015-Jul-06 07:33 213 23.9
2015-Jul-06 07:03 213 24.4
2015-Jul-06 06:33 213 24.4
2015-Jul-06 06:03 213 25.0
2015-Jul-06 05:33 240 25.6
2015-Jul-06 05:03 215 0 gusting 6 26.1
2015-Jul-06 04:33 182 26.1
2015-Jul-06 04:03 070 1 gusting 6 26.7
2015-Jul-06 03:33 148 26.7
2015-Jul-06 03:04 141 1 gusting 10 26.7
2015-Jul-06 02:33 145 4 gusting 7 27.2
2015-Jul-06 02:03 137 4 gusting 6 27.2
2015-Jul-06 01:33 139 4 gusting 8 27.2
2015-Jul-06 01:04 132 5 gusting 7 27.2
2015-Jul-06 00:33 123 4 gusting 6 27.2
2015-Jul-06 00:03 137 3 gusting 7 27.2
2015-Jul-05 23:33 145 2 gusting 7 27.8
2015-Jul-05 23:03 129 3 gusting 8 28.3
2015-Jul-05 22:33 131 7 gusting 11 28.9
2015-Jul-05 22:03 128 5 gusting 9 30.0
2015-Jul-05 21:33 127 7 gusting 13 30.6
2015-Jul-05 21:03 144 5 gusting 11 30.6
2015-Jul-05 20:33 155 6 gusting 13 30.6
2015-Jul-05 20:03 138 4 gusting 12 31.7
2015-Jul-05 19:33 139 8 gusting 13 31.7
2015-Jul-05 19:03 114 5 gusting 12 31.7
2015-Jul-05 18:34 132 5 gusting 14 32.2
2015-Jul-05 18:03 144 6 gusting 13 32.2
2015-Jul-05 17:34 150 7 gusting 15 32.2
2015-Jul-05 17:03 145 1 gusting 12 32.2
2015-Jul-05 16:33 121 6 gusting 12 32.2
2015-Jul-05 16:03 124 4 gusting 10 32.8
2015-Jul-05 15:33 184 6 gusting 13 32.2
2015-Jul-05 15:04 151 6 gusting 12 31.7
2015-Jul-05 14:33 208 5 gusting 11 30.6
2015-Jul-05 14:03 105 6 gusting 10 30.0
2015-Jul-05 13:33 130 5 gusting 8 28.9
2015-Jul-05 13:03 146 2 gusting 9 28.3
2015-Jul-05 12:33 126 26.7
2015-Jul-05 12:04 179 26.7
2015-Jul-05 11:33 179 24.4
2015-Jul-05 11:03 179 22.8
2015-Jul-05 10:33 178 22.2
2015-Jul-05 10:03 177 22.8
2015-Jul-05 09:33 177 22.8
2015-Jul-05 09:03 178 22.8
2015-Jul-05 08:33 178 22.8
2015-Jul-05 08:03 156 23.3
2015-Jul-05 07:33 156 23.9
2015-Jul-05 07:03 156 25.0
2015-Jul-05 06:33 161 26.1
2015-Jul-05 06:03 202 3 26.1